Location: Wiesbaden
(50.0830°N, 8.2500°E)
Time: 20:45:04
(UTC+02:00)

ISS - Pass Details

Date: 20 July 2019
Orbit: 409 x 418 km, 51.6° (Epoch: 20 July)

Event Time Altitude Azimuth Distance (km) Brightness Sun altitude
Rises 01:25:58 0° 281° (W) 2,352 0.2 -19.1°
Reaches altitude 10° 01:28:05 10° 283° (WNW) 1,487 -0.8 -19.2°
Maximum altitude 01:31:24 70° 8° (N) 443 -3.6 -19.2°
Drops below altitude 10° 01:34:43 10° 93° (E) 1,480 -1.0 -19.2°
Sets 01:36:48 0° 96° (E) 2,339 0.0 -19.2°
